FW9086 Weather Reports


Display with metric or nautical units.
time (UTC)temp
F
wind
direction
speed
MPH
gust
MPH
rain 1hr
in
rain 24hr
in
rain mn
in
humidity
%
barometer
mb
20260906144822 77 117 0.0 1.0 0.00 0.00 0.00 71 1016.0
20260906144317 75 100 1.0 1.0 0.00 0.00 0.00 74 1015.8
20260906143816 73 117 1.0 1.0 0.00 0.00 0.00 75 1015.9
20260906143313 73 99 2.0 2.0 0.00 0.00 0.00 75 1015.7
20260906142809 72 93 1.0 2.0 0.00 0.00 0.00 77 1015.8
20260906142306 72 125 1.0 2.0 0.00 0.00 0.00 78 1015.6
20260906141803 72 130 1.0 2.0 0.00 0.00 0.00 78 1015.6
20260906141257 71 44 1.0 1.0 0.00 0.00 0.00 79 1015.3
20260906140756 71 104 2.0 2.0 0.00 0.00 0.00 78 1015.5
20260906140251 71 118 2.0 2.0 0.00 0.00 0.00 79 1015.5
20260906135749 71 64 2.0 2.0 0.00 0.00 0.00 79 1015.3
20260906135244 71 109 2.0 2.0 0.00 0.00 0.00 80 1015.5
20260906134740 71 78 1.0 2.0 0.00 0.00 0.00 80 1015.6
20260906134235 71 98 0.0 1.0 0.00 0.00 0.00 79 1015.6
20260906133730 70 80 1.0 2.0 0.00 0.00 0.00 80 1015.7
20260906133226 70 66 1.0 2.0 0.00 0.00 0.00 83 1015.7
20260906132721 69 45 3.0 3.0 0.00 0.00 0.00 83 1015.5
20260906132216 69 80 1.0 1.0 0.00 0.00 0.00 84 1015.4
20260906131712 69 59 1.0 2.0 0.00 0.00 0.00 85 1015.4
20260906131207 69 91 1.0 2.0 0.00 0.00 0.00 85 1015.4
20260906130702 69 145 1.0 1.0 0.00 0.00 0.00 86 1015.5
20260906130157 68 110 1.0 1.0 0.00 0.00 0.00 86 1015.3
20260906125655 68 69 1.0 1.0 0.00 0.00 0.00 86 1015.2
20260906125154 68 82 1.0 1.0 0.00 0.00 0.00 87 1015.2
20260906124649 68 66 1.0 2.0 0.00 0.00 0.00 87 1015.0
20260906124144 68 143 0.0 1.0 0.00 0.00 0.00 87 1015.0
20260906123643 68 141 1.0 2.0 0.00 0.00 0.00 88 1015.0
20260906123139 67 100 0.0 1.0 0.00 0.00 0.00 88 1015.1
20260906122638 67 154 1.0 2.0 0.00 0.00 0.00 88 1015.0
20260906122134 67 58 0.0 1.0 0.00 0.00 0.00 88 1014.9
20260906121630 67 135 1.0 1.0 0.00 0.00 0.00 88 1014.9
20260906121126 67 144 0.0 1.0 0.00 0.00 0.00 88 1014.7
20260906120622 66 119 1.0 1.0 0.00 0.00 0.00 88 1014.8
20260906120119 66 136 0.0 1.0 0.00 0.00 0.00 89 1014.6
20260906115618 66 121 0.0 0.0 0.00 0.00 0.00 88 1014.6
20260906115114 66 144 0.0 1.0 0.00 0.00 0.00 88 1014.5
20260906114613 66 153 1.0 1.0 0.00 0.00 0.00 88 1014.4
20260906114109 66 141 0.0 1.0 0.00 0.00 0.00 88 1014.5
20260906113608 66 133 0.0 1.0 0.00 0.00 0.00 88 1014.3
20260906113103 66 101 1.0 1.0 0.00 0.00 0.00 88 1014.2
20260906112557 66 149 0.0 0.0 0.00 0.00 0.00 88 1014.3
20260906112055 66 119 1.0 1.0 0.00 0.00 0.00 87 1014.5
20260906111553 66 143 0.0 0.0 0.00 0.00 0.00 88 1014.0
20260906111049 66 132 0.0 1.0 0.00 0.00 0.00 87 1013.8
20260906110549 66 121 0.0 1.0 0.00 0.00 0.00 87 1013.8
20260906110048 66 138 0.0 0.0 0.00 0.00 0.00 88 1014.0
20260906105543 67 133 1.0 1.0 0.00 0.00 0.00 87 1014.0
20260906105039 67 140 0.0 0.0 0.00 0.00 0.00 88 1013.8
20260906104537 67 133 0.0 1.0 0.00 0.00 0.00 87 1013.7
20260906104032 67 106 0.0 1.0 0.00 0.00 0.00 87 1013.8
20260906103530 67 111 1.0 1.0 0.00 0.00 0.00 87 1013.7
20260906103026 67 146 0.0 0.0 0.00 0.00 0.00 86 1013.7
20260906102526 67 146 0.0 0.0 0.00 0.00 0.00 86 1013.9
20260906102021 67 146 0.0 0.0 0.00 0.00 0.00 86 1013.7
20260906101515 67 135 0.0 0.0 0.00 0.00 0.00 86 1013.5
20260906101010 68 130 0.0 0.0 0.00 0.00 0.00 85 1013.6
20260906100506 68 125 0.0 1.0 0.00 0.00 0.00 85 1013.6
20260906100000 68 129 0.0 1.0 0.00 0.00 0.00 85 1013.4
20260906095455 68 125 0.0 0.0 0.00 0.00 0.00 86 1013.5
20260906094950 68 137 1.0 1.0 0.00 0.00 0.00 86 1013.5
20260906094449 68 110 1.0 1.0 0.00 0.00 0.00 85 1013.2
20260906093945 68 111 1.0 1.0 0.00 0.00 0.00 85 1013.4
20260906093442 68 146 0.0 0.0 0.00 0.00 0.00 85 1013.4
20260906092942 68 128 0.0 1.0 0.00 0.00 0.00 85 1013.3
20260906092442 68 114 1.0 1.0 0.00 0.00 0.00 85 1013.0
20260906091937 68 126 0.0 1.0 0.00 0.00 0.00 85 1013.1
20260906091432 69 135 0.0 1.0 0.00 0.00 0.00 84 1013.3
20260906090929 69 130 0.0 0.0 0.00 0.00 0.00 84 1013.2
20260906090424 69 119 0.0 1.0 0.00 0.00 0.00 84 1013.1
20260906085918 69 119 1.0 1.0 0.00 0.00 0.00 83 1012.9
20260906085412 69 89 0.0 1.0 0.00 0.00 0.00 85 1013.2
20260906084911 69 121 1.0 1.0 0.00 0.00 0.00 85 1013.0
20260906084406 69 128 1.0 1.0 0.00 0.00 0.00 86 1012.9
20260906083905 69 91 1.0 1.0 0.00 0.00 0.00 86 1013.1
20260906083401 70 112 1.0 1.0 0.00 0.00 0.00 87 1012.8
20260906082900 70 135 0.0 1.0 0.00 0.00 0.00 88 1013.0
20260906082355 70 107 0.0 0.0 0.00 0.00 0.00 89 1012.9
20260906081851 70 126 0.0 0.0 0.00 0.00 0.00 89 1012.9
20260906081347 70 147 1.0 1.0 0.00 0.00 0.00 90 1012.8
20260906080843 71 121 1.0 1.0 0.00 0.00 0.00 90 1013.2
20260906080339 71 120 1.0 1.0 0.00 0.00 0.00 90 1013.1
20260906075838 71 133 0.0 1.0 0.00 0.00 0.00 89 1013.0
20260906075333 71 61 1.0 2.0 0.00 0.00 0.00 90 1012.8
20260906074828 71 78 1.0 1.0 0.00 0.00 0.00 91 1013.1
20260906074328 72 96 1.0 1.0 0.00 0.00 0.00 91 1012.8
20260906073827 72 92 2.0 2.0 0.00 0.00 0.00 91 1012.9
20260906073322 72 105 1.0 1.0 0.00 0.00 0.00 92 1012.6
20260906072818 73 83 0.0 1.0 0.00 0.00 0.00 92 1012.8
20260906072314 73 52 1.0 1.0 0.00 0.00 0.00 92 1013.0
20260906071810 73 83 0.0 1.0 0.00 0.00 0.00 92 1012.8
20260906071304 73 125 2.0 2.0 0.00 0.00 0.00 92 1012.9
20260906070801 73 132 1.0 1.0 0.00 0.00 0.00 93 1012.9
20260906070256 73 123 1.0 2.0 0.00 0.00 0.00 93 1012.9
20260906065755 73 140 1.0 1.0 0.00 0.00 0.00 94 1012.8
20260906065251 73 155 0.0 1.0 0.00 0.00 0.00 94 1012.9
20260906064747 73 107 1.0 1.0 0.00 0.00 0.00 94 1012.6
20260906064243 73 135 0.0 0.0 0.00 0.00 0.00 94 1012.6
20260906063737 73 147 0.0 0.0 0.00 0.00 0.00 94 1012.8
20260906063233 73 139 0.0 0.0 0.00 0.00 0.00 94 1013.0
20260906062728 73 142 0.0 1.0 0.00 0.00 0.00 94 1012.5
20260906062227 74 144 0.0 0.0 0.00 0.00 0.00 94 1012.8
20260906061723 74 52 1.0 1.0 0.00 0.00 0.00 94 1013.0
20260906061219 74 121 1.0 1.0 0.00 0.00 0.00 94 1012.8
20260906060714 74 140 0.0 0.0 0.00 0.00 0.00 94 1012.8
20260906060212 74 146 0.0 0.0 0.00 0.00 0.00 93 1012.6
20260906055707 74 128 1.0 1.0 0.00 0.00 0.00 93 1012.6
20260906055202 74 134 1.0 1.0 0.00 0.00 0.00 93 1012.8
20260906054657 75 101 1.0 1.0 0.00 0.00 0.00 93 1012.3
20260906054152 75 128 0.0 1.0 0.00 0.00 0.00 93 1012.3
20260906053649 75 134 1.0 1.0 0.00 0.00 0.00 93 1012.4
20260906053144 75 136 0.0 1.0 0.00 0.00 0.00 93 1012.5
20260906052639 75 146 0.0 0.0 0.00 0.00 0.00 92 1012.4
20260906052136 75 106 0.0 0.0 0.00 0.00 0.00 93 1012.4
20260906051632 75 121 1.0 1.0 0.00 0.00 0.00 93 1012.4
20260906051131 75 126 0.0 1.0 0.00 0.00 0.00 93 1012.4
20260906050627 75 122 0.0 0.0 0.00 0.00 0.00 93 1012.4
20260906050122 75 133 0.0 0.0 0.00 0.00 0.00 93 1012.4
20260906045620 75 96 1.0 1.0 0.00 0.00 0.00 93 1012.6
20260906045116 75 131 0.0 1.0 0.00 0.00 0.00 93 1012.3
20260906044612 75 137 0.0 1.0 0.00 0.00 0.00 93 1012.1
20260906044107 75 149 0.0 1.0 0.00 0.00 0.00 92 1012.3
20260906043603 75 144 0.0 1.0 0.00 0.00 0.00 92 1012.0
20260906043058 75 105 1.0 1.0 0.00 0.00 0.00 92 1012.2
20260906042557 76 126 1.0 1.0 0.00 0.00 0.00 92 1012.2
20260906042052 76 111 1.0 1.0 0.00 0.00 0.00 91 1012.2
20260906041548 76 90 2.0 2.0 0.00 0.00 0.00 91 1012.1
20260906041043 76 121 1.0 1.0 0.00 0.00 0.00 91 1012.0
20260906040538 76 130 0.0 1.0 0.00 0.00 0.00 90 1012.1
20260906040034 76 114 2.0 2.0 0.00 0.01 0.01 90 1012.2
20260906035529 77 149 0.0 1.0 0.00 0.01 0.01 90 1012.0
20260906035025 77 89 1.0 2.0 0.00 0.01 0.01 90 1012.0
20260906034524 77 119 2.0 2.0 0.00 0.01 0.01 90 1012.0
20260906034019 77 154 1.0 1.0 0.00 0.01 0.01 90 1011.9
20260906033514 77 130 0.0 1.0 0.00 0.01 0.01 90 1012.2
20260906033010 77 115 0.0 1.0 0.00 0.01 0.01 89 1011.9
20260906032507 77 117 2.0 2.0 0.00 0.01 0.01 89 1011.7
20260906032007 78 101 3.0 3.0 0.00 0.01 0.01 89 1011.9
20260906031502 78 88 1.0 2.0 0.00 0.01 0.01 89 1011.9
20260906030957 78 119 1.0 2.0 0.00 0.01 0.01 89 1011.9
20260906030452 78 132 1.0 1.0 0.00 0.01 0.01 89 1012.0
20260906025951 78 103 1.0 1.0 0.00 0.01 0.01 88 1011.7
20260906025446 78 119 1.0 1.0 0.00 0.01 0.01 88 1011.9
20260906024944 79 121 2.0 2.0 0.00 0.01 0.01 88 1011.8
20260906024445 78 91 2.0 2.0 0.00 0.01 0.01 88 1011.8
20260906023945 78 131 1.0 1.0 0.00 0.01 0.01 89 1011.8
20260906023441 78 149 0.0 0.0 0.00 0.01 0.01 89 1011.6
20260906022936 78 169 1.0 1.0 0.00 0.01 0.01 88 1011.5
20260906022431 79 106 0.0 0.0 0.00 0.01 0.01 88 1011.4
20260906021926 79 121 0.0 0.0 0.00 0.01 0.01 87 1011.4
20260906021426 79 135 0.0 0.0 0.00 0.01 0.01 88 1011.4
20260906020920 79 151 0.0 0.0 0.00 0.01 0.01 88 1011.1
20260906020415 79 164 0.0 0.0 0.00 0.01 0.01 88 1011.2
20260906015909 79 135 0.0 0.0 0.00 0.01 0.01 88 1011.1
20260906015409 79 138 1.0 1.0 0.00 0.01 0.01 88 1011.2
20260906014908 79 151 0.0 0.0 0.00 0.01 0.01 88 1010.9
20260906014403 79 147 0.0 0.0 0.00 0.01 0.01 88 1011.1
20260906013859 79 147 0.0 0.0 0.00 0.01 0.01 87 1010.9
20260906013354 79 128 0.0 0.0 0.00 0.01 0.01 87 1011.1
20260906012850 79 144 0.0 0.0 0.00 0.01 0.01 88 1010.8
20260906012344 79 135 0.0 0.0 0.00 0.01 0.01 87 1010.9
20260906011838 79 165 0.0 0.0 0.00 0.01 0.01 87 1010.5
20260906011333 79 136 0.0 0.0 0.00 0.01 0.01 87 1010.6
20260906010829 79 159 0.0 0.0 0.00 0.01 0.01 87 1010.7
20260906010325 79 150 0.0 0.0 0.00 0.01 0.01 87 1010.6
20260906005820 79 150 0.0 0.0 0.00 0.01 0.01 86 1010.6
20260906005319 79 123 0.0 0.0 0.00 0.01 0.01 86 1010.5
20260906004818 79 134 0.0 0.0 0.00 0.01 0.01 86 1010.3
20260906004318 80 132 0.0 0.0 0.00 0.01 0.01 86 1010.0
20260906003813 80 149 0.0 0.0 0.00 0.01 0.01 86 1010.1
20260906003308 80 158 0.0 0.0 0.00 0.01 0.01 86 1010.3
20260906002804 80 129 0.0 0.0 0.00 0.01 0.01 86 1010.1
20260906002306 80 152 0.0 0.0 0.00 0.01 0.01 86 1010.1
20260906001759 80 151 0.0 1.0 0.00 0.01 0.01 86 1010.2
20260906001254 80 160 0.0 0.0 0.00 0.01 0.01 86 1010.0
20260906000749 80 162 0.0 0.0 0.00 0.01 0.01 85 1010.0
20260906000244 80 164 0.0 1.0 0.00 0.01 0.01 84 1010.2
20260905235739 80 148 0.0 0.0 0.00 0.01 0.01 83 1010.0
20260905235238 80 145 0.0 0.0 0.00 0.01 0.01 84 1010.3
20260905234734 80 153 0.0 0.0 0.00 0.01 0.01 84 1010.4
20260905234229 80 167 0.0 0.0 0.00 0.01 0.01 83 1010.2
20260905233725 80 174 0.0 0.0 0.00 0.01 0.01 84 1010.1
20260905233224 80 169 0.0 0.0 0.00 0.01 0.01 83 1010.2
20260905232719 80 169 0.0 0.0 0.00 0.01 0.01 83 1010.2
20260905232214 80 171 0.0 0.0 0.00 0.01 0.01 81 1010.4
20260905231710 80 172 0.0 0.0 0.00 0.01 0.01 81 1010.1
20260905231205 80 150 0.0 0.0 0.00 0.01 0.01 83 1010.1
20260905230702 80 158 0.0 1.0 0.00 0.01 0.01 82 1010.1
20260905230159 80 166 0.0 0.0 0.00 0.01 0.01 82 1009.9
20260905225659 80 175 0.0 0.0 0.00 0.01 0.01 84 1010.0
20260905225154 80 176 0.0 0.0 0.00 0.01 0.01 85 1009.8
20260905224653 80 168 0.0 0.0 0.00 0.01 0.01 88 1009.8
20260905224148 80 176 0.0 0.0 0.00 0.01 0.01 88 1009.9
20260905223645 80 174 0.0 0.0 0.00 0.01 0.01 88 1009.9
20260905223141 80 181 0.0 0.0 0.00 0.01 0.01 90 1009.9
20260905222637 80 164 0.0 0.0 0.00 0.01 0.01 91 1009.8
20260905222131 80 178 0.0 0.0 0.00 0.01 0.01 92 1010.0
20260905221627 80 238 1.0 1.0 0.00 0.01 0.01 92 1010.1
20260905221124 80 126 0.0 0.0 0.00 0.01 0.01 93 1010.1
20260905220619 80 184 0.0 0.0 0.00 0.01 0.01 93 1010.1
20260905220115 80 208 0.0 1.0 0.00 0.01 0.01 93 1010.0
20260905215614 80 171 0.0 0.0 0.00 0.01 0.01 94 1009.6
20260905215104 81 167 0.0 0.0 0.00 0.01 0.01 93 1009.7
20260905214600 82 191 0.0 0.0 0.00 0.01 0.01 90 1009.8
20260905214055 82 164 0.0 0.0 0.05 0.01 0.01 88 1009.7
20260905213550 84 188 0.0 0.0 0.05 0.01 0.01 85 1010.2
20260905213045 85 186 1.0 1.0 0.00 0.00 0.00 80 1010.3
20260905212545 85 185 1.0 1.0 0.00 0.00 0.00 78 1010.1
20260905212045 86 176 0.0 0.0 0.00 0.00 0.00 77 1009.8
20260905211540 86 169 1.0 1.0 0.00 0.00 0.00 75 1009.6
20260905211036 86 172 0.0 0.0 0.00 0.00 0.00 75 1010.1
20260905210531 87 194 1.0 1.0 0.00 0.00 0.00 75 1009.8
20260905210026 88 191 0.0 1.0 0.00 0.00 0.00 70 1010.0
20260905205525 89 121 0.0 1.0 0.00 0.00 0.00 67 1010.0
20260905205024 90 172 0.0 0.0 0.00 0.00 0.00 68 1009.6
20260905204519 92 260 2.0 2.0 0.00 0.00 0.00 67 1009.9
20260905204015 93 198 0.0 0.0 0.00 0.00 0.00 62 1009.9
20260905203509 93 183 0.0 0.0 0.00 0.00 0.00 62 1010.0
20260905203005 94 204 0.0 0.0 0.00 0.00 0.00 62 1010.1
20260905202500 92 186 0.0 0.0 0.00 0.00 0.00 63 1010.1
20260905201956 92 166 0.0 0.0 0.00 0.00 0.00 68 1010.2
20260905201450 93 192 0.0 0.0 0.00 0.00 0.00 61 1010.3
20260905200950 92 224 0.0 1.0 0.00 0.00 0.00 66 1010.3
20260905200446 94 232 2.0 2.0 0.00 0.00 0.00 61 1010.3
20260905195944 92 166 0.0 0.0 0.00 0.00 0.00 68 1010.4
20260905195439 91 199 1.0 2.0 0.00 0.00 0.00 67 1010.1
20260905194935 90 168 0.0 0.0 0.00 0.00 0.00 68 1010.2
20260905194434 90 174 0.0 0.0 0.00 0.00 0.00 66 1010.5
20260905193929 91 100 0.0 0.0 0.00 0.00 0.00 65 1010.5
20260905193424 91 232 2.0 2.0 0.00 0.00 0.00 66 1010.5
20260905192919 93 233 2.0 2.0 0.00 0.00 0.00 62 1010.6
20260905192414 94 185 0.0 1.0 0.00 0.00 0.00 62 1010.5
20260905191914 92 186 0.0 0.0 0.00 0.00 0.00 64 1010.5
20260905191414 91 217 2.0 2.0 0.00 0.00 0.00 64 1010.7
20260905190908 91 178 0.0 0.0 0.00 0.00 0.00 65 1010.9
20260905190400 90 178 0.0 0.0 0.00 0.00 0.00 69 1011.1
20260905185859 89 135 0.0 0.0 0.00 0.00 0.00 68 1010.7
20260905185355 89 188 0.0 1.0 0.00 0.00 0.00 65 1011.0
20260905184853 89 233 2.0 2.0 0.00 0.00 0.00 65 1011.1
20260905184353 89 181 0.0 0.0 0.00 0.00 0.00 66 1011.4
20260905183851 89 225 2.0 2.0 0.00 0.00 0.00 67 1011.2
20260905183347 89 205 1.0 1.0 0.00 0.00 0.00 66 1011.3
20260905182842 89 234 3.0 5.0 0.00 0.00 0.00 65 1011.7
20260905182341 89 257 3.0 3.0 0.00 0.00 0.00 67 1011.3
20260905181837 90 208 0.0 1.0 0.00 0.00 0.00 65 1011.5
20260905181336 89 189 0.0 1.0 0.00 0.00 0.00 65 1011.6
20260905180836 89 230 2.0 2.0 0.00 0.00 0.00 63 1011.7
20260905180331 89 235 3.0 3.0 0.00 0.00 0.00 64 1011.8
20260905175826 89 249 2.0 2.0 0.00 0.00 0.00 62 1011.7
20260905175320 89 228 1.0 2.0 0.00 0.00 0.00 62 1011.8
20260905174815 89 212 1.0 1.0 0.00 0.00 0.00 62 1012.0
20260905174311 89 202 0.0 1.0 0.00 0.00 0.00 63 1011.9
20260905173807 89 173 0.0 1.0 0.00 0.00 0.00 63 1011.7
20260905173303 89 219 1.0 1.0 0.00 0.00 0.00 63 1011.9
20260905172803 89 196 1.0 1.0 0.00 0.00 0.00 60 1012.0
20260905172301 90 185 1.0 1.0 0.00 0.00 0.00 60 1012.0
20260905171757 89 189 1.0 1.0 0.00 0.00 0.00 63 1012.1
20260905171253 90 254 2.0 2.0 0.00 0.00 0.00 61 1012.2
20260905170749 89 182 0.0 1.0 0.00 0.00 0.00 63 1012.0
20260905170245 89 209 1.0 1.0 0.00 0.00 0.00 62 1012.2
20260905165744 89 198 0.0 1.0 0.00 0.00 0.00 62 1012.2
20260905165240 88 187 1.0 1.0 0.00 0.00 0.00 62 1012.4
20260905164740 87 174 0.0 1.0 0.00 0.00 0.00 66 1012.4
20260905164234 88 206 1.0 1.0 0.00 0.00 0.00 64 1012.6
20260905163730 89 180 0.0 1.0 0.00 0.00 0.00 62 1012.8
20260905163226 88 186 0.0 0.0 0.00 0.00 0.00 63 1012.5
20260905162722 87 84 1.0 1.0 0.00 0.00 0.00 65 1012.5
20260905162222 86 168 0.0 0.0 0.00 0.00 0.00 65 1012.5
20260905161717 87 223 0.0 1.0 0.00 0.00 0.00 62 1012.6
20260905161215 86 169 1.0 2.0 0.00 0.00 0.00 65 1012.8
20260905160713 86 182 0.0 0.0 0.00 0.00 0.00 64 1012.4
20260905160208 86 199 1.0 1.0 0.00 0.00 0.00 63 1012.5
20260905155702 87 173 0.0 0.0 0.00 0.00 0.00 63 1012.6
20260905155202 87 178 0.0 1.0 0.00 0.00 0.00 63 1012.8
20260905154656 86 173 0.0 1.0 0.00 0.00 0.00 67 1012.8
20260905154151 85 176 0.0 1.0 0.00 0.00 0.00 67 1012.8
20260905153647 84 176 0.0 1.0 0.00 0.00 0.00 67 1012.3
20260905153142 84 227 1.0 2.0 0.00 0.00 0.00 67 1012.5
20260905152637 84 180 1.0 1.0 0.00 0.00 0.00 70 1012.6
20260905152132 83 205 2.0 2.0 0.00 0.00 0.00 69 1012.8
20260905151627 83 202 1.0 1.0 0.00 0.00 0.00 69 1013.0
20260905151122 83 170 0.0 1.0 0.00 0.00 0.00 69 1012.9
20260905150618 84 219 1.0 1.0 0.00 0.00 0.00 66 1013.0
20260905150116 83 175 0.0 1.0 0.00 0.00 0.00 70 1012.8
20260905145614 83 173 0.0 0.0 0.00 0.00 0.00 69 1013.0